Location: El Bakhil
(32.7726°N, 5.5387°W)
Time: 04:37:20
(UTC+00:00)

USA 238 - Pass Details

Date: 03 March 2021
Orbit: 994 x 1218 km, 63.4° (Epoch: 11 April)

Event Time Altitude Azimuth Distance (km) Brightness Sun altitude
Rises 19:33:12 0° 174° (S) 3,692 6.4 -15.9°
Reaches altitude 10° 19:36:13 10° 161° (SSE) 2,752 5.6 -16.6°
Enters shadow 19:40:56 25° 114° (ESE) 1,916 4.5 -17.6°
